EUTELSAT HOTBIRD 13E

Last updated on Thu Nov 21 2024 00:02:40 GMT+0000 (Coordinated Universal Time)

1 28946U 06007B 24325.02480248 .00000087 00000+0 00000+0 0 9999 2 28946 0.6059 95.6076 0005185 145.8276 199.8136 1.00270293 68562
UTC large
Height (km)
Speed (km/s)
/
Latitude / Longitude
Inclination (degrees)
Orbital Period (minutes)
Azimuth
Elevation
Range (km)
Doppler Factor

Next 0 passes for location: London (51.5072 / 0.1276)

Sorry there are no passes over London.